Change the Weather History Date:

Tuesday, October 29, 2013

  Actual Average Record
Temperature  
Mean Temperature 62 °F 65 °F  
Max Temperature 68 °F 74 °F 85 °F (2014)
Min Temperature 55 °F 56 °F 46 °F (2009)
Degree Days  
Heating Degree Days 3 2  
Month to date heating degree days 14 20  
Since 1 July heating degree days 14 21  
Cooling Degree Days 0 2  
Month to date cooling degree days 96 82  
Year to date cooling degree days 1131 850  
Growing Degree Days 12 (Base 50)    
Moisture  
Dew Point 49 °F    
Average Humidity 64    
Maximum Humidity 86    
Minimum Humidity 42    
Precipitation  
Precipitation T in 0.04 in 0.30 in (2000)
Month to date precipitation 0.20 0.68  
Year to date precipitation 2.29 9.93  
Since 1 July precipitation 0.32 0.97  
Snow  
Snow 0.00 in - - ()
Month to date snowfall 0.0  
Year to date snowfall 0.0  
Since 1 July snowfall 0.0  
Snow Depth 0.00 in    
Sea Level Pressure  
Sea Level Pressure 29.97 in    
Wind  
Wind Speed 3 mph (WSW)    
Max Wind Speed 14 mph    
Max Gust Speed 18 mph    
Visibility 10 miles    
Events Rain    
T = Trace of Precipitation, MM = Missing Value Source: NWS Daily Summary

Daily Weather History Graph

Daily Weather History Graph

Search for Another Location

Airport or City:

Trip Planner

Search our weather history database for the weather conditions in past years. The results will help you decide how hot, cold, wet, or windy it might be!

Date:

Astronomy

Oct. 29, 2013 Rise Set
Actual Time 7:08 AM PDT 6:01 PM PDT
Civil Twilight 6:42 AM PDT 6:27 PM PDT
Nautical Twilight 6:13 AM PDT 6:56 PM PDT
Astronomical Twilight 5:44 AM PDT 7:25 PM PDT
Moon 2:16 AM PDT (10/29) 3:05 PM PDT (10/29)
Length of Visible Light 11h 44m
Length of Day
10h 53m
Waning Crescent, 24% of the Moon is Illuminated
Oct 29
Waning Crescent
Nov 3
New
Nov 9
First Quarter
Nov 17
Full
Nov 25
Last Quarter

Hourly Weather History & Observations

Time (PDT) Temp. Dew Point Humidity Pressure Visibility Wind Dir Wind Speed Gust Speed Precip Events Conditions
12:53 AM 59.0 °F 52.0 °F 78% 29.94 in 10.0 mi Calm Calm - N/A   Mostly Cloudy
1:53 AM 59.0 °F 50.0 °F 72% 29.95 in 10.0 mi West 3.5 mph - N/A   Mostly Cloudy
2:53 AM 55.9 °F 50.0 °F 80% 29.94 in 10.0 mi Calm Calm - N/A   Clear
3:53 AM 55.9 °F 48.9 °F 77% 29.93 in 10.0 mi Calm Calm - N/A   Clear
4:53 AM 55.9 °F 50.0 °F 80% 29.93 in 10.0 mi Calm Calm - N/A   Scattered Clouds
5:53 AM 55.9 °F 51.1 °F 84% 29.93 in 10.0 mi Calm Calm - 0.00 in   Overcast
6:00 AM 55.4 °F 50.0 °F 82% 29.93 in 10.0 mi Calm Calm - 0.00 in Rain Light Rain
6:53 AM 55.9 °F 50.0 °F 80% 29.94 in 10.0 mi Calm Calm - 0.00 in   Mostly Cloudy
7:53 AM 57.0 °F 50.0 °F 77% 29.96 in 10.0 mi Calm Calm - N/A   Scattered Clouds
8:53 AM 59.0 °F 48.9 °F 69% 29.98 in 10.0 mi ENE 3.5 mph - N/A   Scattered Clouds
9:53 AM 62.1 °F 46.9 °F 58% 29.99 in 10.0 mi Calm Calm - N/A   Scattered Clouds
10:53 AM 64.0 °F 46.0 °F 52% 29.99 in 10.0 mi Variable 4.6 mph - N/A   Scattered Clouds
11:53 AM 64.0 °F 46.0 °F 52% 29.99 in 10.0 mi Calm Calm - N/A   Partly Cloudy
12:53 PM 68.0 °F 45.0 °F 43% 29.98 in 10.0 mi Variable 6.9 mph - N/A   Scattered Clouds
1:53 PM 66.0 °F 46.0 °F 48% 29.96 in 10.0 mi WSW 9.2 mph 18.4 mph N/A   Partly Cloudy
2:53 PM 66.9 °F 45.0 °F 45% 29.95 in 10.0 mi SW 8.1 mph - N/A   Partly Cloudy
3:53 PM 64.9 °F 46.9 °F 52% 29.96 in 10.0 mi WSW 9.2 mph - N/A   Partly Cloudy
4:53 PM 64.9 °F 48.0 °F 54% 29.96 in 10.0 mi WSW 6.9 mph - N/A   Partly Cloudy
5:53 PM 63.0 °F 48.0 °F 58% 29.96 in 10.0 mi WSW 4.6 mph - N/A   Partly Cloudy
6:53 PM 62.1 °F 48.9 °F 62% 29.98 in 10.0 mi West 3.5 mph - N/A   Partly Cloudy
7:53 PM 62.1 °F 48.9 °F 62% 29.99 in 10.0 mi West 3.5 mph - N/A   Overcast
8:53 PM 61.0 °F 48.9 °F 64% 29.99 in 10.0 mi Calm Calm - N/A   Clear
9:53 PM 61.0 °F 50.0 °F 67% 30.01 in 10.0 mi Calm Calm - N/A   Clear
10:53 PM 60.1 °F 50.0 °F 69% 30.01 in 10.0 mi Calm Calm - N/A   Clear
11:53 PM 57.0 °F 48.9 °F 74% 30.01 in 10.0 mi Calm Calm - N/A   Clear